Weather History for KMSS - December, 2011

Change the Weather History Date:

Tuesday, December 6, 2011

  Actual Average Record
Temperature  
Mean Temperature 38 °F 26 °F  
Max Temperature 41 °F 34 °F 68 °F (2001)
Min Temperature 35 °F 19 °F -2 °F (1969)
Degree Days  
Heating Degree Days 27 39  
Month to date heating degree days 174 225  
Since 1 July heating degree days 1466 1994  
Cooling Degree Days 0 0  
Month to date cooling degree days 0  
Year to date cooling degree days 363  
Moisture  
Dew Point 35 °F    
Average Humidity 89    
Maximum Humidity 92    
Minimum Humidity 85    
Precipitation  
Precipitation 0.19 in 0.09 in 0.71 in (1984)
Month to date precipitation 0.83 0.52  
Year to date precipitation 29.71 33.05  
Sea Level Pressure  
Sea Level Pressure 30.12 in    
Wind  
Wind Speed 6 mph (NNE)    
Max Wind Speed 10 mph    
Max Gust Speed -    
Visibility 7 miles    
Events Rain    
T = Trace of Precipitation, MM = Missing Value Source: NWS Daily Summary

Daily Weather History Graph

Daily Weather History Graph

Search for Another Location

Airport or City:

Trip Planner

Search our weather history database for the weather conditions in past years. The results will help you decide how hot, cold, wet, or windy it might be!

Date:

Astronomy

Dec. 06, 2011 Rise Set
Actual Time 7:22 AM EST 4:18 PM EST
Civil Twilight 6:48 AM EST 4:51 PM EST
Nautical Twilight 6:12 AM EST 5:28 PM EST
Astronomical Twilight 5:36 AM EST 6:03 PM EST
Moon 1:49 PM EST (12/6) 3:32 AM EST (12/6)
Length of Visible Light 10h 02m
Length of Day
8h 55m
Waxing Gibbous, 86% of the Moon is Illuminated
Dec 6
Waxing Gibbous
Dec 10
Full
Dec 17
Last Quarter
Dec 24
New
Jan 1
First Quarter

Hourly Weather History & Observations

Time (EST) Temp. Windchill Dew Point Humidity Pressure Visibility Wind Dir Wind Speed Gust Speed Precip Events Conditions
12:48 AM 41.0 °F 37.1 °F 37.4 °F 87% 30.16 in 9.0 mi NNW 5.8 mph - 0.04 in Rain Light Rain
12:53 AM 41.0 °F 37.1 °F 37.9 °F 89% 30.17 in 10.0 mi North 5.8 mph - 0.04 in Rain Light Rain
1:19 AM 39.2 °F 35.0 °F 37.4 °F 93% 30.15 in 5.0 mi NNW 5.8 mph - 0.02 in Rain Light Rain
1:31 AM 39.2 °F 35.0 °F 37.4 °F 93% 30.15 in 7.0 mi NNW 5.8 mph - 0.02 in Rain Light Rain
1:53 AM 39.9 °F 35.8 °F 37.0 °F 89% 30.17 in 6.0 mi NNW 5.8 mph - 0.04 in Rain Light Rain
2:29 AM 39.2 °F 37.0 °F 37.4 °F 93% 30.15 in 8.0 mi NNW 3.5 mph - 0.03 in Rain Light Rain
2:53 AM 39.2 °F 35.9 °F 37.4 °F 93% 30.15 in 8.0 mi North 4.6 mph - N/A Rain Light Rain
3:53 AM 39.0 °F 35.7 °F 36.0 °F 89% 30.16 in 10.0 mi North 4.6 mph - 0.03 in Rain Light Rain
4:53 AM 37.9 °F 33.5 °F 36.0 °F 93% 30.13 in 10.0 mi North 5.8 mph - 0.01 in Rain Light Rain
5:53 AM 37.9 °F 34.4 °F 36.0 °F 93% 30.14 in 10.0 mi North 4.6 mph - 0.00 in Rain Light Rain
6:53 AM 37.9 °F 33.5 °F 35.1 °F 89% 30.14 in 10.0 mi North 5.8 mph - 0.01 in   Overcast
7:53 AM 37.9 °F 33.5 °F 35.1 °F 89% 30.15 in 6.0 mi North 5.8 mph - 0.01 in Rain Light Rain
8:53 AM 37.9 °F 33.5 °F 36.0 °F 93% 30.14 in 10.0 mi North 5.8 mph - 0.00 in   Overcast
9:53 AM 37.9 °F 32.7 °F 35.1 °F 89% 30.16 in 10.0 mi NNW 6.9 mph - N/A   Overcast
10:53 AM 37.0 °F 30.4 °F 34.0 °F 89% 30.14 in 10.0 mi North 9.2 mph - N/A   Overcast
11:53 AM 37.0 °F 31.6 °F 35.1 °F 93% 30.13 in 10.0 mi North 6.9 mph - N/A   Overcast
12:53 PM 37.9 °F 30.9 °F 34.0 °F 86% 30.11 in 10.0 mi NNE 10.4 mph - N/A   Overcast
1:02 PM 37.4 °F 29.8 °F 35.6 °F 93% 30.09 in 10.0 mi NNE 11.5 mph - N/A   Overcast
1:53 PM 37.9 °F 32.1 °F 34.0 °F 86% 30.10 in 10.0 mi NNE 8.1 mph - N/A   Overcast
2:53 PM 37.9 °F 32.1 °F 34.0 °F 86% 30.10 in 10.0 mi NE 8.1 mph - N/A   Overcast
3:53 PM 37.0 °F 31.6 °F 34.0 °F 89% 30.10 in 2.5 mi NE 6.9 mph - N/A   Overcast
4:07 PM 37.4 °F 32.8 °F 33.8 °F 87% 30.09 in 4.0 mi NE 5.8 mph - N/A   Overcast
4:19 PM 37.4 °F 32.8 °F 33.8 °F 87% 30.09 in 3.0 mi ENE 5.8 mph - N/A   Overcast
4:53 PM 37.0 °F 32.4 °F 34.0 °F 89% 30.11 in 3.0 mi ENE 5.8 mph - N/A   Overcast
5:44 PM 35.6 °F 29.9 °F 33.8 °F 93% 30.08 in 7.0 mi NE 6.9 mph - N/A   Overcast
5:53 PM 36.0 °F 30.3 °F 33.1 °F 89% 30.10 in 6.0 mi NE 6.9 mph - N/A   Overcast
6:53 PM 36.0 °F 32.1 °F 34.0 °F 93% 30.09 in 3.0 mi East 4.6 mph - N/A   Overcast
7:20 PM 35.6 °F 31.7 °F 33.8 °F 93% 30.07 in 4.0 mi East 4.6 mph - N/A   Overcast
7:53 PM 35.1 °F 31.0 °F 33.1 °F 92% 30.09 in 5.0 mi ENE 4.6 mph - N/A   Overcast
11:53 PM 35.1 °F 32.2 °F 32.0 °F 89% 30.04 in 6.0 mi NNE 3.5 mph - N/A   Overcast